{"data":{"norad_id":68032,"intl_designator":"2026-040T","name":"STARLINK-36935","alt_names":[],"object_type":"PAYLOAD","status":"ACTIVE","operator":null,"country":"US","launch_date":"2026-03-01","launch_site_code":"AFWTR","launch_vehicle":null,"mission":null,"orbit_class":"UNKNOWN","rcs_meters":null,"size_class":null,"mass_kg":null,"dimensions":null,"purposes":["comms"],"wikipedia_slug":null,"has_3d_model":false,"image_url":null,"decayed_at":null,"tle_current":{"epoch":"2026-09-19T15:56:01.169952Z","epoch_age_seconds":131859,"freshness":"FRESH","line1":"1 68032U 26040T   26262.66390243  .00026489  00000+0  81926-3 0  9999","line2":"2 68032  97.2846 210.0768 0001403 112.8908 247.2483 15.33471685 31195","mean_motion":15.33471685,"eccentricity":0.0001403,"inclination_deg":97.2846,"raan_deg":210.0768,"arg_perigee_deg":112.8908,"mean_anomaly_deg":247.2483,"bstar":0.00081926,"rev_number":3119,"period_min":93.904570530104,"perigee_km":464.50362265457,"apogee_km":466.42393703339,"semimajor_km":6843.600779844,"source":"CELESTRAK","updated_at":"2026-09-20T09:00:43.744996Z"}}}